Regional Weather Roundup
Issued by NWS

Home | Current Version | Previous Version | Graphics & Text | Print | Product List | Glossary On
Versions: 1 2 3 4 5 6 7 8 9 10 11 12 13 14 15 16 17 18 19 20 21 22 23 24 25 26 27 28 29 30 31 32 33 34 35 36 37 38 39 40 41 42 43 44 45 46 47 48 49 50
000
ASUS45 KBOI 222210
RWRID

IDAHO REGIONAL WEATHER ROUNDUP
NATIONAL WEATHER SERVICE BOISE ID
400 PM MDT FRI MAY 22 2015

NOTE: "FAIR" INDICATES FEW OR NO CLOUDS BELOW 12000 FEET
WITH NO SIGNIFICANT WEATHER AND/OR OBSTRUCTIONS TO VISIBILITY

IDZ012-014-222300-
SOUTHWEST IDAHO


CITY           SKY/WX    TMP DP  RH WIND       PRES   REMARKS
BOISE          PTSUNNY   70  47  43 NE6       29.82F
CALDWELL       PTSUNNY   72  48  43 W8        29.82F
MOUNTAIN HOME  PTSUNNY   70  45  40 W5        29.82F
$$

IDZ016-017-222300-
SOUTHCENTRAL IDAHO


CITY           SKY/WX    TMP DP  RH WIND       PRES   REMARKS
BURLEY         CLOUDY    57  46  66 N7        29.88R
JEROME         MOSUNNY   62  49  62 W5        29.87F
TWIN FALLS     PTSUNNY   65  44  46 VRB3      29.84F
$$

IDZ019>023-222300-
SOUTHEAST IDAHO


CITY           SKY/WX    TMP DP  RH WIND       PRES   REMARKS
IDAHO FALLS    CLOUDY    64  47  53 W10       29.86F
POCATELLO      MOSUNNY   65  40  39 W8        29.86F
REXBURG        CLOUDY    66  37  34 CALM      29.85F
$$

IDZ006-010-011-018-031-032-222300-
CENTRAL IDAHO MOUNTAINS


CITY           SKY/WX    TMP DP  RH WIND       PRES   REMARKS
MCCALL         MOSUNNY   65  42  43 VRB5      29.86F
HAILEY         PTSUNNY   59  48  67 NW12      29.91F
STANLEY          N/A     49  39  68 N9        29.95R
SALMON         CLOUDY    64  45  48 N7        29.84S
CHALLIS        CLOUDY    57  41  55 S15       29.90S
$$

IDZ002-004-006-007-026-222300-
NORTHERN IDAHO


CITY           SKY/WX    TMP DP  RH WIND       PRES   REMARKS
LEWISTON       PTSUNNY   83  51  33 MISG      29.76F
LOWELL           N/A     73  48  41 CALM      29.73S
COEUR D`ALENE  MOSUNNY   72  48  43 W8        29.80S
MULLAN PASS    MOSUNNY   64  31  28 VRB5      29.96F
$$



USA.gov is the U.S. government's official web portal to all federal, state and local government web resources and services.